When you browse on this site, cookies collect data to enhance your experience and personalize the content and advertising you see.
Visit our Privacy Policy to learn more. By continuing to use the site, you agree to this use of cookies and data.
  • în România
  • Lista ţărilor
  • Pe 7 zile
  • Temperatura apei
  • Meteo pe hartă
  • Widget-uri
  • user-avatar
    Intrare

    Meteo pe oră la Nam Dinh

    Astăzi, 7 Iunie, Duminică

    Timp Temperatura Precipitaţii Vânt Presiune Umiditate
    00:00 +33°C° 0.4 mm 6 m/s 751 mmHg 64%
    01:00 +33°C° 0 mm 5 m/s 751 mmHg 66%
    02:00 +32°C° 0 mm 5 m/s 751 mmHg 66%
    03:00 +32°C° 0 mm 5 m/s 750 mmHg 67%
    04:00 +32°C° 0 mm 5 m/s 750 mmHg 67%
    05:00 +32°C° 0 mm 5 m/s 750 mmHg 66%
    06:00 +33°C° 0 mm 5 m/s 750 mmHg 65%
    07:00 +33°C° 0 mm 5 m/s 750 mmHg 64%
    08:00 +35°C° 0 mm 5 m/s 750 mmHg 57%
    09:00 +37°C° 0 mm 5 m/s 750 mmHg 50%
    10:00 +40°C° 0 mm 5 m/s 751 mmHg 43%
    11:00 +41°C° 0 mm 5 m/s 750 mmHg 40%
    12:00 +42°C° 0 mm 4 m/s 749 mmHg 36%
    13:00 +44°C° 0 mm 4 m/s 749 mmHg 33%
    14:00 +43°C° 0 mm 5 m/s 748 mmHg 36%
    15:00 +42°C° 0 mm 6 m/s 747 mmHg 39%
    16:00 +41°C° 0 mm 7 m/s 747 mmHg 42%
    17:00 +40°C° 0.1 mm 7 m/s 747 mmHg 45%
    18:00 +38°C° 0.1 mm 7 m/s 747 mmHg 49%
    19:00 +36°C° 0.1 mm 7 m/s 747 mmHg 52%
    20:00 +35°C° 0.3 mm 7 m/s 748 mmHg 54%
    21:00 +34°C° 0.3 mm 7 m/s 749 mmHg 56%
    22:00 +33°C° 0.3 mm 6 m/s 750 mmHg 59%
    23:00 +33°C° 0 mm 6 m/s 749 mmHg 59%

    Mâine, 8 Iunie, Luni

    Timp Temperatura Precipitaţii Vânt Presiune Umiditate
    00:00 +33°C° 0 mm 6 m/s 749 mmHg 60%
    01:00 +33°C° 0 mm 6 m/s 749 mmHg 61%
    02:00 +32°C° 0 mm 6 m/s 749 mmHg 62%
    03:00 +32°C° 0 mm 6 m/s 749 mmHg 63%
    04:00 +32°C° 0 mm 6 m/s 749 mmHg 64%
    05:00 +33°C° 0 mm 6 m/s 749 mmHg 63%
    06:00 +33°C° 0 mm 6 m/s 749 mmHg 63%
    07:00 +33°C° 0 mm 6 m/s 750 mmHg 62%
    08:00 +35°C° 0 mm 6 m/s 750 mmHg 57%
    09:00 +38°C° 0 mm 6 m/s 750 mmHg 51%
    10:00 +40°C° 0 mm 6 m/s 751 mmHg 46%
    11:00 +41°C° 0 mm 6 m/s 750 mmHg 43%
    12:00 +42°C° 0 mm 5 m/s 750 mmHg 40%
    13:00 +43°C° 0 mm 5 m/s 750 mmHg 37%
    14:00 +42°C° 0 mm 6 m/s 749 mmHg 41%
    15:00 +41°C° 0 mm 6 m/s 748 mmHg 44%
    16:00 +40°C° 0 mm 7 m/s 748 mmHg 48%
    17:00 +39°C° 0 mm 7 m/s 748 mmHg 51%
    18:00 +36°C° 0 mm 6 m/s 749 mmHg 55%
    19:00 +35°C° 0 mm 6 m/s 749 mmHg 59%
    20:00 +35°C° 0 mm 5 m/s 750 mmHg 61%
    21:00 +34°C° 0 mm 5 m/s 750 mmHg 63%
    22:00 +34°C° 0 mm 5 m/s 751 mmHg 65%
    23:00 +34°C° 0.1 mm 5 m/s 751 mmHg 66%

    Poimâine, 9 Iunie, Marţi

    Timp Temperatura Precipitaţii Vânt Presiune Umiditate
    00:00 +33°C° 0.1 mm 5 m/s 751 mmHg 68%
    01:00 +33°C° 0.1 mm 6 m/s 751 mmHg 69%
    02:00 +33°C° 0 mm 6 m/s 750 mmHg 70%
    03:00 +33°C° 0 mm 5 m/s 750 mmHg 71%
    04:00 +32°C° 0 mm 5 m/s 750 mmHg 72%
    05:00 +33°C° 0 mm 5 m/s 751 mmHg 70%
    06:00 +33°C° 0 mm 5 m/s 751 mmHg 69%
    07:00 +33°C° 0 mm 4 m/s 752 mmHg 67%
    08:00 +35°C° 0 mm 4 m/s 752 mmHg 62%
    09:00 +36°C° 0 mm 3 m/s 752 mmHg 57%
    10:00 +38°C° 0 mm 3 m/s 752 mmHg 52%
    11:00 +38°C° 0 mm 3 m/s 752 mmHg 50%
    12:00 +39°C° 0 mm 2 m/s 752 mmHg 49%
    13:00 +39°C° 0 mm 2 m/s 751 mmHg 47%
    14:00 +39°C° 0 mm 2 m/s 751 mmHg 49%
    15:00 +38°C° 0 mm 3 m/s 751 mmHg 51%
    16:00 +38°C° 0 mm 3 m/s 750 mmHg 52%
    17:00 +37°C° 0 mm 3 m/s 751 mmHg 58%
    18:00 +35°C° 0 mm 3 m/s 751 mmHg 64%
    19:00 +34°C° 0 mm 3 m/s 752 mmHg 70%
    20:00 +34°C° 0.2 mm 3 m/s 752 mmHg 71%
    21:00 +33°C° 0.2 mm 3 m/s 753 mmHg 72%
    22:00 +33°C° 0.2 mm 3 m/s 753 mmHg 74%
    23:00 +33°C° 0.2 mm 4 m/s 753 mmHg 75%

    10 Iunie, Miercuri

    Timp Temperatura Precipitaţii Vânt Presiune Umiditate
    00:00 +33°C° 0.2 mm 5 m/s 753 mmHg 76%
    01:00 +32°C° 0.2 mm 6 m/s 752 mmHg 77%
    02:00 +32°C° 0.8 mm 5 m/s 752 mmHg 79%
    03:00 +32°C° 0.8 mm 5 m/s 752 mmHg 81%
    04:00 +32°C° 0.8 mm 4 m/s 752 mmHg 82%
    05:00 +32°C° 1.2 mm 4 m/s 752 mmHg 82%
    06:00 +31°C° 1.2 mm 3 m/s 753 mmHg 82%
    07:00 +31°C° 1.2 mm 3 m/s 753 mmHg 82%
    08:00 +31°C° 0.6 mm 3 m/s 754 mmHg 78%
    09:00 +32°C° 0.6 mm 2 m/s 754 mmHg 74%
    10:00 +34°C° 0.6 mm 2 m/s 755 mmHg 70%
    11:00 +35°C° 0 mm 2 m/s 754 mmHg 65%
    12:00 +35°C° 0 mm 1 m/s 753 mmHg 59%
    13:00 +36°C° 0 mm 1 m/s 753 mmHg 54%
    14:00 +36°C° 0 mm 1 m/s 752 mmHg 53%
    15:00 +37°C° 0 mm 2 m/s 752 mmHg 52%
    16:00 +38°C° 0 mm 2 m/s 752 mmHg 50%
    17:00 +36°C° 0 mm 2 m/s 752 mmHg 57%
    18:00 +35°C° 0 mm 3 m/s 752 mmHg 65%
    19:00 +33°C° 0 mm 3 m/s 752 mmHg 72%
    20:00 +33°C° 0.2 mm 3 m/s 753 mmHg 75%
    21:00 +31°C° 0.2 mm 3 m/s 753 mmHg 77%
    22:00 +31°C° 0.2 mm 3 m/s 754 mmHg 79%
    23:00 +31°C° 0.2 mm 3 m/s 753 mmHg 79%

    11 Iunie, Joi

    Timp Temperatura Precipitaţii Vânt Presiune Umiditate
    00:00 +31°C° 0.2 mm 3 m/s 753 mmHg 79%
    01:00 +30°C° 0.2 mm 3 m/s 753 mmHg 79%
    02:00 +30°C° 0.4 mm 2 m/s 752 mmHg 80%
    03:00 +30°C° 0.4 mm 2 m/s 752 mmHg 81%
    04:00 +30°C° 0.4 mm 1 m/s 752 mmHg 82%
    05:00 +30°C° 0.5 mm 1 m/s 752 mmHg 81%
    06:00 +31°C° 0.5 mm 2 m/s 752 mmHg 80%
    07:00 +31°C° 0.5 mm 2 m/s 752 mmHg 79%
    08:00 +32°C° 0.1 mm 2 m/s 753 mmHg 75%
    09:00 +34°C° 0.1 mm 3 m/s 753 mmHg 71%
    10:00 +35°C° 0.1 mm 3 m/s 753 mmHg 66%
    11:00 +35°C° 0 mm 3 m/s 752 mmHg 64%
    12:00 +36°C° 0 mm 3 m/s 752 mmHg 61%
    13:00 +37°C° 0 mm 4 m/s 751 mmHg 58%
    14:00 +37°C° 0 mm 4 m/s 751 mmHg 58%
    15:00 +37°C° 0 mm 4 m/s 750 mmHg 58%
    16:00 +37°C° 0 mm 4 m/s 750 mmHg 58%
    17:00 +35°C° 0 mm 4 m/s 750 mmHg 63%
    18:00 +34°C° 0 mm 4 m/s 750 mmHg 68%
    19:00 +33°C° 0 mm 4 m/s 750 mmHg 72%
    20:00 +33°C° 0 mm 4 m/s 751 mmHg 74%
    21:00 +33°C° 0 mm 4 m/s 751 mmHg 76%
    22:00 +32°C° 0 mm 4 m/s 752 mmHg 77%
    23:00 +32°C° 0.2 mm 4 m/s 751 mmHg 79%

    12 Iunie, Vineri

    Timp Temperatura Precipitaţii Vânt Presiune Umiditate
    00:00 +32°C° 0.2 mm 4 m/s 751 mmHg 80%
    01:00 +32°C° 0.2 mm 4 m/s 750 mmHg 82%
    02:00 +32°C° 0 mm 4 m/s 750 mmHg 81%
    03:00 +32°C° 0 mm 4 m/s 750 mmHg 80%
    04:00 +32°C° 0 mm 4 m/s 750 mmHg 79%
    05:00 +32°C° 0 mm 4 m/s 750 mmHg 77%
    06:00 +32°C° 0 mm 4 m/s 750 mmHg 76%
    07:00 +31°C° 0 mm 3 m/s 751 mmHg 74%
    08:00 +34°C° 0 mm 3 m/s 751 mmHg 67%
    09:00 +36°C° 0 mm 3 m/s 751 mmHg 60%
    10:00 +37°C° 0 mm 3 m/s 751 mmHg 53%
    11:00 +39°C° 0 mm 3 m/s 751 mmHg 48%
    12:00 +40°C° 0 mm 3 m/s 750 mmHg 43%
    13:00 +42°C° 0 mm 3 m/s 750 mmHg 38%
    14:00 +40°C° 0 mm 3 m/s 749 mmHg 42%
    15:00 +40°C° 0 mm 3 m/s 749 mmHg 45%
    16:00 +40°C° 0 mm 4 m/s 748 mmHg 48%
    17:00 +37°C° 0.2 mm 3 m/s 748 mmHg 56%
    18:00 +35°C° 0.2 mm 3 m/s 749 mmHg 63%
    19:00 +34°C° 0.2 mm 3 m/s 749 mmHg 70%
    20:00 +34°C° 0.4 mm 3 m/s 749 mmHg 72%
    21:00 +33°C° 0.4 mm 3 m/s 750 mmHg 74%
    22:00 +32°C° 0.4 mm 2 m/s 750 mmHg 76%
    23:00 +32°C° 0.1 mm 2 m/s 750 mmHg 77%
    Arată mai mult